Lexington Weather

Lexington, Massachusetts, USA

56°F
10/22/2020 7:24pm 
  • Lexington Conditions: Mostly cloudy
  • Temperature: 55.8°F / 13.2°CColder 0.5°F than last hour.
  • Dew Point: 54.3°FDecreased 0.4°Fsince last hour.
  • Relative Humidity: 95%Increased 1.0% since last hour.
  • Wind: Wind from SSE SSE Calm, 10-min avg: 1 mph, gust: 5 mph
  • Barometer: 30.22 inRising 0.02  inHg/hr Rising Slowly
  • Visibility: 7 miles
  • Rain Today: 0.00 in
  •   

Regional Weather Roundup
for Boston / Norton, MA

        
000
ASUS41 KBOX 181805
RWRBOX

REGIONAL WEATHER ROUNDUP
NATIONAL WEATHER SERVICE BOSTON/NORTON MA
200 PM EDT SUN OCT 18 2020

NOTE:  "FAIR" INDICATES FEW OR NO CLOUDS BELOW 12,000 FEET WITH NO 
SIGNIFICANT WEATHER AND/OR OBSTRUCTIONS TO VISIBILITY.

MAZALL-181900-
EASTERN MASSACHUSETTS
  
CITY           SKY/WX    TMP DP  RH WIND       PRES   REMARKS
BOSTON         CLOUDY    58  38  47 E15       30.51F                  
6HR MIN TEMP:  42; 6HR MAX TEMP:  58;                                

BEVERLY        PTSUNNY   59  38  45 SE10      30.50F                  
LAWRENCE       PTSUNNY   59  36  42 SE8G18    30.51F                  
BEDFORD        MOSUNNY   61  38  42 MISG      30.48F                  
BLUE HILL        N/A     58  35  42 E9G17     30.48F                  
NORWOOD        MOSUNNY   63  36  36 E9        30.48F                  
MARSHFIELD     MOSUNNY   61  39  44 SE10      30.50F                  
PLYMOUTH       SUNNY     60  38  43 NE12      30.49F                  
TAUNTON        SUNNY     63  37  38 SE5       30.48F                  
NEW BEDFORD    SUNNY     62  39  42 SE8       30.48F                  
$$

MAZALL-181900-
CAPE COD AND THE ISLANDS
  
CITY           SKY/WX    TMP DP  RH WIND       PRES   REMARKS
FALMOUTH       SUNNY     59  39  47 E9G17     30.49F                  
HYANNIS        SUNNY     59  40  49 SE7       30.48F                  
CHATHAM        SUNNY     58  40  51 E10       30.51F                  
PROVINCETOWN   SUNNY     60  41  49 E14       30.51F                  
NANTUCKET      SUNNY     61  41  47 E13G22    30.48F                  
MARTHAS VNYRD  SUNNY     60  41  49 E12       30.49F                  
$$
 
MAZALL-181900-
CENTRAL AND WESTERN MASSACHUSETTS
  
CITY           SKY/WX    TMP DP  RH WIND       PRES   REMARKS
WORCESTER      MOSUNNY   57  33  40 SE12      30.47F                  
6HR MIN TEMP:  44; 6HR MAX TEMP:  57;                                

FITCHBURG      MOSUNNY   59  37  44 S8        30.49F                  
ORANGE         MOSUNNY   59  31  34 SW14      30.47F                  
SPRINGFIELD    PTSUNNY   63  35  35 S8        30.45F                  
WESTFIELD      SUNNY     60  40  47 S12       30.46F                  
NORTH ADAMS    MOSUNNY   59  37  44 SE13      30.43F                  
PITTSFIELD     MOSUNNY   58  37  45 SE9G18    30.41F                  
$$
 
RIZALL-181900-
RHODE ISLAND
  
CITY           SKY/WX    TMP DP  RH WIND       PRES   REMARKS
PROVIDENCE     MOSUNNY   60  38  43 S9        30.49F                  
6HR MIN TEMP:  37; 6HR MAX TEMP:  62;                                

NEWPORT        SUNNY     59  40  49 VRB7      30.49F                  
BLOCK ISLAND   SUNNY     58  43  57 SE12      30.49F                  
SMITHFIELD     SUNNY     61  36  39 S6          N/A                   
WESTERLY       SUNNY     60  41  49 E9        30.49F                  
$$
 
CTZALL-181900-
CONNECTICUT
  
CITY           SKY/WX    TMP DP  RH WIND       PRES   REMARKS
BRADLEY INTL   PTSUNNY   62  39  42 S5        30.46F                  
6HR MIN TEMP:  33; 6HR MAX TEMP:  62;                                

HARTFORD       MOSUNNY   63  38  39 S10       30.46F                  
BRIDGEPORT     MOSUNNY   63  43  48 SE13      30.46F                  
DANBURY        MOSUNNY   60  40  47 SE10G17   30.45F                  
GROTON         SUNNY     60  43  53 SE12G20   30.48F                  
NEW HAVEN      SUNNY     63  44  50 SE12      30.47F                  
CHESTER        NOT AVBL                                               
MERIDEN        MOSUNNY   61  38  42 SE9G18    30.47F                  
WILLIMANTIC    SUNNY     61  34  36 S13       30.47F                  
OXFORD         PTSUNNY   60  44  55 S14       30.47F                  
$$

MEZ002-015-021-024-NHZ003-005-008-011-012-014-VTZ005-008-181900-
NORTHERN NEW ENGLAND
  
CITY           SKY/WX    TMP DP  RH WIND       PRES   REMARKS
PORTLAND ME    CLOUDY    57  40  52 S10       30.52F                  
6HR MIN TEMP:  33; 6HR MAX TEMP:  58;                                

BANGOR ME      PTSUNNY   58  32  37 S9G18     30.53F                  
CONCORD NH     PTSUNNY   58  34  40 S9        30.49F                  
MANCHESTER NH  PTSUNNY   60  34  37 SE9       30.48F                  
NASHUA NH      PTSUNNY   60  35  39 SE10      30.49F                  
PORTSMOUTH NH  PTSUNNY   58  34  40 SE14      30.49F                  
JAFFREY NH     PTSUNNY   56  29  35 S10G16    30.47F                  
KEENE NH       PTSUNNY   59  32  36 S10       30.46F                  
BURLINGTON VT  PTSUNNY   59  28  30 S21G29    30.36F                  
MT. WASHINGTON NOT AVBL                                               
$$

NYZ052-076-181900-
EASTERN NEW YORK
  
CITY           SKY/WX    TMP DP  RH WIND       PRES   REMARKS
ALBANY         PTSUNNY   58  35  42 S13G28    30.41F                  
6HR MIN TEMP:  31; 6HR MAX TEMP:  58;                                

NEW YORK CITY  PTSUNNY   64  44  48 SE13      30.44F                  
6HR MIN TEMP:  52; 6HR MAX TEMP:  65;                                

$$
 
ANZALL-181900-
MARINE OBSERVATIONS
  
STATION/POSITION TIME  TEMP    WIND        PRES    VSBY  WAVE
                       AIR SEA DIR/SP/G                  HT/PER
                 (UTC) (F)     (DEG/KT/KT) (MB)    (MI)  (FT/S)
BOSTON BUOY      1750   56 58  110/ 10/ 12 1032.0F         2/ 3
BUZZARDS BAY     1700           90/  9/ 11 1033.9F
NANTUCKET SOUND  1750      61   90/ 12/ 16   N/A           2/ 3
MASS BAY-STELLWA 1704   57 58  130/ 10/ 12 1033.3F  1 7/8  1/ 3
ISLE OF SHOALS   1700   51      80/  2/  3 1033.6F
S OF BLOCK IS    1726      63                N/A           3/ 5
$$

......................KEY.........................
  SKY/WX - SKY CONDITION/PRESENT WEATHER
  TMP    - TEMPERATURE IN FAHRENHEIT
  DWPT   - DEWPOINT IN FAHRENHEIT
  RH     - RELATIVE HUMIDITY IN PERCENT
  WIND   - DIRECTION AND SPEED IN MPH
  PRES   - MEAN SEA LEVEL PRESSURE IN INCHES OF HG
  WCI    - WIND CHILL INDEX
  VSB    - VISIBILITY IN MILES
  HX     - HEAT INDEX
  TC     - TEMPERATURE IN CELSIUS
  VRB    - VARIABLE WIND DIRECTION
  N/A    - NOT AVAILABLE
  
      

Other recent Regional Weather Roundups

Thu Oct 22, 7:05pm

Thu Oct 22, 6:04pm

Thu Oct 22, 5:04pm

Thu Oct 22, 4:05pm

Thu Oct 22, 3:04pm

Thu Oct 22, 2:05pm

Thu Oct 22, 1:04pm

Thu Oct 22, 12:04pm

Thu Oct 22, 11:04am

Thu Oct 22, 10:05am

Thu Oct 22, 9:04am

Thu Oct 22, 8:05am

Thu Oct 22, 7:04am

Thu Oct 22, 6:04am

Thu Oct 22, 5:04am

Thu Oct 22, 4:04am

Thu Oct 22, 3:04am

Thu Oct 22, 2:04am

Thu Oct 22, 1:04am

Thu Oct 22, 12:04am

Wed Oct 21, 11:05pm

Wed Oct 21, 10:04pm

Wed Oct 21, 9:04pm

Wed Oct 21, 8:04pm

Wed Oct 21, 7:04pm

Wed Oct 21, 6:04pm

Wed Oct 21, 5:05pm

Wed Oct 21, 4:04pm

Wed Oct 21, 3:04pm

Wed Oct 21, 2:05pm

Wed Oct 21, 1:04pm

Wed Oct 21, 12:04pm

Wed Oct 21, 11:04am

Wed Oct 21, 10:04am

Wed Oct 21, 9:04am

Wed Oct 21, 8:04am

Wed Oct 21, 7:04am

Wed Oct 21, 6:04am

Wed Oct 21, 5:04am

Wed Oct 21, 4:04am

Wed Oct 21, 3:04am

Wed Oct 21, 2:04am

Wed Oct 21, 1:04am

Wed Oct 21, 12:04am

Tue Oct 20, 11:05pm

Tue Oct 20, 10:04pm

Tue Oct 20, 9:04pm

Tue Oct 20, 8:05pm

Tue Oct 20, 7:04pm

Tue Oct 20, 6:04pm

Tue Oct 20, 5:05pm

Tue Oct 20, 4:04pm

Tue Oct 20, 3:05pm

Tue Oct 20, 2:07pm

Tue Oct 20, 1:04pm

Tue Oct 20, 12:04pm

Tue Oct 20, 11:04am

Tue Oct 20, 10:05am

Tue Oct 20, 9:04am

Tue Oct 20, 8:04am

Tue Oct 20, 7:04am

Tue Oct 20, 6:04am

Tue Oct 20, 5:04am

Tue Oct 20, 4:04am

Tue Oct 20, 3:04am

Tue Oct 20, 2:04am

Tue Oct 20, 1:04am

Tue Oct 20, 12:04am

Mon Oct 19, 11:04pm

Mon Oct 19, 10:04pm

Mon Oct 19, 9:04pm

Mon Oct 19, 8:04pm

Mon Oct 19, 7:04pm

Mon Oct 19, 6:04pm

Mon Oct 19, 5:04pm

Mon Oct 19, 4:04pm

Mon Oct 19, 3:04pm

Mon Oct 19, 2:04pm

Mon Oct 19, 1:05pm

Mon Oct 19, 12:04pm

Mon Oct 19, 11:04am

Mon Oct 19, 10:04am

Mon Oct 19, 9:04am

Mon Oct 19, 8:04am

Mon Oct 19, 7:04am

Mon Oct 19, 6:04am

Mon Oct 19, 5:04am

Mon Oct 19, 4:04am

Mon Oct 19, 3:04am

Mon Oct 19, 2:04am

Mon Oct 19, 1:04am

Mon Oct 19, 12:05am

Sun Oct 18, 11:04pm

Sun Oct 18, 10:04pm

Sun Oct 18, 9:04pm

Sun Oct 18, 8:04pm

Sun Oct 18, 7:05pm

Sun Oct 18, 6:04pm

Sun Oct 18, 5:05pm

Sun Oct 18, 4:05pm

Sun Oct 18, 3:04pm

Sun Oct 18, 1:04pm

Sun Oct 18, 12:04pm

Sun Oct 18, 11:04am

Sun Oct 18, 10:04am

Sun Oct 18, 9:04am

Sun Oct 18, 8:04am

Sun Oct 18, 7:04am

Sun Oct 18, 6:04am

Sun Oct 18, 5:04am

Sun Oct 18, 4:04am

Sun Oct 18, 3:04am

Sun Oct 18, 2:04am

Sun Oct 18, 1:04am

Sun Oct 18, 12:04am

Sat Oct 17, 11:05pm

Sat Oct 17, 10:04pm

Sat Oct 17, 9:04pm

Sat Oct 17, 8:04pm

Sat Oct 17, 7:04pm

Sat Oct 17, 6:04pm

Sat Oct 17, 5:05pm

Sat Oct 17, 4:04pm

Sat Oct 17, 3:04pm

Sat Oct 17, 2:05pm

Sat Oct 17, 1:05pm

Sat Oct 17, 12:04pm

Sat Oct 17, 11:05am

Sat Oct 17, 10:04am

Sat Oct 17, 9:04am

Sat Oct 17, 8:04am

Sat Oct 17, 7:04am

Sat Oct 17, 6:04am

Sat Oct 17, 5:04am

Sat Oct 17, 4:04am

Sat Oct 17, 3:04am

Sat Oct 17, 2:04am

Sat Oct 17, 1:05am

Sat Oct 17, 12:04am

Fri Oct 16, 11:05pm

Fri Oct 16, 10:04pm

Fri Oct 16, 9:05pm

Fri Oct 16, 8:04pm

Fri Oct 16, 7:05pm

Fri Oct 16, 6:04pm

Fri Oct 16, 5:04pm

Fri Oct 16, 4:05pm

Fri Oct 16, 3:04pm

Fri Oct 16, 2:04pm

Fri Oct 16, 1:04pm

Fri Oct 16, 12:04pm

Fri Oct 16, 11:05am

Fri Oct 16, 10:04am

Fri Oct 16, 9:04am

Fri Oct 16, 8:04am

Fri Oct 16, 7:04am

Fri Oct 16, 6:04am

Fri Oct 16, 5:04am

Fri Oct 16, 4:04am

Fri Oct 16, 3:04am

Fri Oct 16, 2:04am

Fri Oct 16, 1:04am

Fri Oct 16, 12:04am

Thu Oct 15, 11:04pm

Thu Oct 15, 10:04pm

Thu Oct 15, 9:05pm

Thu Oct 15, 8:04pm

Meta data:

ID: 36797f6e-ca04-4d60-8982-4bc0ee15ce07
Link: https://api.weather.gov/products/36797f6e-ca04-4d60-8982-4bc0ee15ce07